This is the latest recevied weather packets stored in our database for station/object W0BJ. If no packets are shown the sender has not sent any weather packets the latest 1 day(s).
| Time | Temp. | Humidity | Pressure | Rain* | Wind** | Luminosity | Snow |
|---|---|---|---|---|---|---|---|
| 1778105736 | 17.78° C | 35% | 1018.4 hPa | 0 mm | - | - | - |
| 1778104401 | 18.89° C | 39% | 1018.5 hPa | 0 mm | - | - | - |
| 1778102736 | 18.89° C | 38% | 1018.2 hPa | 0 mm | - | - | - |
| 1778101537 | 17.78° C | 39% | 1018.7 hPa | 0 mm | - | - | - |
| 1778100336 | 17.78° C | 36% | 1018.7 hPa | 0 mm | - | - | - |
| 1778099135 | 16.67° C | 36% | 1019.1 hPa | 0 mm | - | - | - |
| 1778097202 | 18.89° C | 38% | 1019 hPa | 0 mm | - | - | - |
| 1778095537 | 18.33° C | 39% | 1019.5 hPa | 0 mm | - | - | - |
| 1778094336 | 17.78° C | 40% | 1019.2 hPa | 0 mm | - | - | - |
| 1778093736 | 17.78° C | 39% | 1019.1 hPa | 0 mm | - | - | - |
| 1778092701 | 17.78° C | 39% | 1019 hPa | 0 mm | - | - | - |
| 1778090902 | 17.22° C | 44% | 1019.5 hPa | 0 mm | - | - | - |
| 1778090736 | 17.22° C | 44% | 1019.4 hPa | 0 mm | - | - | - |
| 1778089101 | 16.11° C | 48% | 1019.4 hPa | 0 mm | - | - | - |
| 1778088200 | 16.11° C | 49% | 1019.3 hPa | 0 mm | - | - | - |
| 1778087736 | 15.56° C | 50% | 1019.4 hPa | 0 mm | - | - | - |
| 1778087302 | 15.56° C | 50% | 1019.3 hPa | 0 mm | - | - | - |
| 1778086521 | 15.56° C | 58% | 1019.3 hPa | 0 mm | - | - | - |
| 1778086401 | 15.56° C | 60% | 1019.3 hPa | 0 mm | - | - | - |
| 1778084722 | 14.44° C | 64% | 1019.2 hPa | 0 mm | - | - | - |
| 1778084602 | 14.44° C | 66% | 1019.2 hPa | 0 mm | - | - | - |
| 1778083521 | 14.44° C | 75% | 1019 hPa | 0 mm | - | - | - |
| 1778082801 | 13.33° C | 74% | 1019.1 hPa | 0 mm | - | - | - |
| 1778081722 | 13.33° C | 76% | 1019.1 hPa | 0 mm | - | - | - |
| 1778081121 | 12.78° C | 77% | 1018.8 hPa | 0 mm | - | - | - |
* Rain latest hour (hover to see other rain measurements)
** Current wind speed in m/s (hover to see current wind gust speed)